This is the latest recevied weather packets stored in our database for station/object KB1ZFK. If no packets are shown the sender has not sent any weather packets the latest 1 day(s).
| Time | Temp. | Humidity | Pressure | Rain* | Wind** | Luminosity | Snow |
|---|---|---|---|---|---|---|---|
| 1778017967 | 26.11° C | 39% | 1004.8 hPa | 0 mm | 1.34 m/s, 300° | 117 W/m² | - |
| 1778017664 | 26.11° C | 39% | 1004.6 hPa | 0 mm | 1.34 m/s, 144° | 96 W/m² | - |
| 1778017362 | 26.11° C | 39% | 1004.5 hPa | 0 mm | 0.45 m/s, 15° | 120 W/m² | - |
| 1778017059 | 26.11° C | 39% | 1004.3 hPa | 0 mm | 1.34 m/s, 335° | 102 W/m² | - |
| 1778016756 | 26.11° C | 38% | 1004.6 hPa | 0 mm | 1.79 m/s, 31° | 114 W/m² | - |
| 1778016452 | 26.11° C | 38% | 1004.2 hPa | 0 mm | 0.45 m/s, 314° | 116 W/m² | - |
| 1778016149 | 26.11° C | 38% | 1004.1 hPa | 0 mm | 0.45 m/s, 323° | 115 W/m² | - |
| 1778015846 | 26.11° C | 38% | 1004.2 hPa | 0 mm | 1.34 m/s, 354° | 104 W/m² | - |
| 1778015544 | 26.11° C | 38% | 1004.1 hPa | 0 mm | 0.89 m/s, 352° | 110 W/m² | - |
| 1778015240 | 26.11° C | 38% | 1004.3 hPa | 0 mm | 1.34 m/s, 276° | 125 W/m² | - |
| 1778014937 | 26.11° C | 38% | 1004.3 hPa | 0 mm | 2.24 m/s, 90° | 125 W/m² | - |
| 1778014634 | 26.11° C | 38% | 1004.3 hPa | 0 mm | 1.34 m/s, 183° | 121 W/m² | - |
| 1778014333 | 26.67° C | 38% | 1004.2 hPa | 0 mm | 1.34 m/s, 325° | 123 W/m² | - |
| 1778014029 | 26.67° C | 37% | 1004.1 hPa | 0 mm | 2.24 m/s, 187° | 120 W/m² | - |
| 1778013727 | 26.67° C | 37% | 1004.1 hPa | 0 mm | 0.89 m/s, 10° | 153 W/m² | - |
| 1778013424 | 26.67° C | 37% | 1004 hPa | 0 mm | 1.79 m/s, 168° | 152 W/m² | - |
| 1778013120 | 26.67° C | 37% | 1004.1 hPa | 0 mm | 0.89 m/s, 329° | 164 W/m² | - |
| 1778012816 | 26.67° C | 37% | 1004.3 hPa | 0 mm | 2.24 m/s, 106° | 119 W/m² | - |
| 1778012512 | 26.67° C | 36% | 1004.1 hPa | 0 mm | 1.34 m/s, 264° | 150 W/m² | - |
| 1778012209 | 26.67° C | 36% | 1004.1 hPa | 0 mm | 1.34 m/s, 67° | 165 W/m² | - |
| 1778011907 | 26.67° C | 36% | 1004.3 hPa | 0 mm | 1.34 m/s, 249° | 180 W/m² | - |
| 1778011605 | 27.78° C | 35% | 1004.6 hPa | 0 mm | 1.34 m/s, 207° | 138 W/m² | - |
| 1778011301 | 27.78° C | 34% | 1004.5 hPa | 0 mm | 0.89 m/s, 330° | 149 W/m² | - |
| 1778010997 | 27.78° C | 34% | 1004.3 hPa | 0 mm | 1.34 m/s, 306° | 196 W/m² | - |
| 1778010695 | 27.22° C | 36% | 1004.6 hPa | 0 mm | 0.45 m/s, 336° | 214 W/m² | - |
* Rain latest hour (hover to see other rain measurements)
** Current wind speed in m/s (hover to see current wind gust speed)